Lemoore NAS, CA

11:03 AM PDT on September 19, 2017 (GMT -0700)
Lemoore Naval Air Station

Weather History for KNLC - January, 2014

Change the Weather History Date:

Friday, January 24, 2014

  Actual Average Record
Temperature  
Mean Temperature 62 °F -  
Max Temperature 80 °F 53 °F 80 °F (2014)
Min Temperature 43 °F 38 °F 27 °F (2002)
Degree Days  
Heating Degree Days 4    
Growing Degree Days 12 (Base 50)    
Moisture  
Dew Point 29 °F    
Average Humidity 34    
Maximum Humidity 54    
Minimum Humidity 15    
Precipitation  
Precipitation 0.00 in - - ()
Sea Level Pressure  
Sea Level Pressure 30.15 in    
Wind  
Wind Speed 5 mph (SE)    
Max Wind Speed 14 mph    
Max Gust Speed -    
Visibility 5 miles    
Events      
Averages and records for this station are not official NWS values.
T = Trace of Precipitation, MM = Missing Value Source: NWS Daily Summary

Daily Weather History Graph

Daily Weather History Graph

Search for Another Location

Airport or City:

Trip Planner

Search our weather history database for the weather conditions in past years. The results will help you decide how hot, cold, wet, or windy it might be!

Date:

Astronomy

Jan. 24, 2014 Rise Set
Actual Time 7:06 AM PST 5:17 PM PST
Civil Twilight 6:38 AM PST 5:45 PM PST
Nautical Twilight 6:07 AM PST 6:16 PM PST
Astronomical Twilight 5:37 AM PST 6:47 PM PST
Moon 12:41 AM PST (1/24) 11:38 AM PST (1/24)
Length of Visible Light 11h 06m
Length of Day
10h 11m
Last Quarter, 43% of the Moon is Illuminated
Jan 24
Last Quarter
Jan 30
New
Feb 6
First Quarter
Feb 14
Full
Feb 22
Last Quarter

Hourly Weather History & Observations

Time (PST) Temp. Windchill Dew Point Humidity Pressure Visibility Wind Dir Wind Speed Gust Speed Precip Events Conditions
12:56 AM 48.0 °F - 27.0 °F 44% 30.06 in - Calm Calm - N/A   Clear
1:56 AM 46.9 °F - 28.9 °F 50% 30.06 in - South 4.6 mph - N/A   Clear
2:56 AM 46.0 °F 44.8 °F 23.0 °F 40% 30.07 in - SW 3.5 mph - N/A   Clear
3:56 AM 43.0 °F - 21.0 °F 42% 30.08 in - Calm Calm - N/A   Clear
4:56 AM 45.0 °F 43.5 °F 25.0 °F 46% 30.08 in - Variable 3.5 mph - N/A   Clear
5:56 AM 46.0 °F 43.9 °F 30.0 °F 54% 30.10 in - East 4.6 mph - N/A   Clear
6:56 AM 46.9 °F - 28.9 °F 50% 30.11 in 5.0 mi ESE 6.9 mph - N/A   Haze
7:56 AM 48.9 °F - 32.0 °F 52% 30.13 in 3.0 mi Calm Calm - N/A   Haze
8:56 AM 53.1 °F - 36.0 °F 52% 30.15 in 3.0 mi East 4.6 mph - N/A   Haze
9:19 AM 57.9 °F - 35.1 °F 42% 30.16 in 2.5 mi ESE 5.8 mph - N/A   Haze
9:56 AM 64.0 °F - 32.0 °F 30% 30.17 in 4.0 mi ESE 9.2 mph - N/A   Haze
10:56 AM 69.1 °F - 27.0 °F 21% 30.19 in 6.0 mi SE 9.2 mph - N/A   Haze
11:56 AM 72.0 °F - 28.0 °F 20% 30.17 in 6.0 mi SE 11.5 mph - N/A   Haze
12:56 PM 78.1 °F - 26.1 °F 15% 30.15 in 6.0 mi SE 12.7 mph - N/A   Haze
1:56 PM 80.1 °F - 28.0 °F 15% 30.14 in 6.0 mi SE 11.5 mph - N/A   Haze
2:56 PM 80.1 °F - 28.0 °F 15% 30.13 in 6.0 mi SSE 13.8 mph - N/A   Haze
3:56 PM 79.0 °F - 28.9 °F 16% 30.15 in 6.0 mi SE 6.9 mph - N/A   Haze
4:56 PM 75.0 °F - 28.9 °F 18% 30.17 in 6.0 mi SSE 8.1 mph - N/A   Haze
5:56 PM 68.0 °F - 28.0 °F 22% 30.19 in 7.0 mi SSE 9.2 mph - N/A   Overcast
6:56 PM 64.9 °F - 28.9 °F 26% 30.21 in 7.0 mi South 5.8 mph - N/A   Clear
7:56 PM 62.1 °F - 28.0 °F 28% 30.23 in 8.0 mi NW 6.9 mph - N/A   Clear
8:56 PM 55.9 °F - 30.9 °F 39% 30.24 in 5.0 mi North 6.9 mph - N/A   Haze
9:56 PM 54.0 °F - 30.9 °F 41% 30.24 in 5.0 mi NNW 8.1 mph - N/A   Haze
10:56 PM 55.0 °F - 32.0 °F 42% 30.24 in 4.0 mi WNW 11.5 mph - N/A   Haze
11:56 PM 55.9 °F - 33.1 °F 42% 30.24 in 5.0 mi NNW 9.2 mph - N/A   Haze